{"data":{"norad_id":67908,"epoch":"2026-09-19T06:14:33.237024Z","epoch_age_seconds":170297,"freshness":"FRESH","line1":"1 67908U 26036E   26262.26010691  .00009742  00000+0  36298-3 0  9992","line2":"2 67908  42.9992 232.2988 0001412 266.7066  93.3624 15.27587063 33324","mean_motion":15.27587063,"eccentricity":0.0001412,"inclination_deg":42.9992,"raan_deg":232.2988,"arg_perigee_deg":266.7066,"mean_anomaly_deg":93.3624,"bstar":0.00036298,"rev_number":3332,"period_min":94.266312858922,"perigee_km":482.05915046773,"apogee_km":483.99674344875,"semimajor_km":6861.1649469582,"source":"CELESTRAK","updated_at":"2026-09-20T09:00:43.701629Z"}}